Location: �perlecques
(50.8057°N, 2.1521°E)
Time: 22:43:04
(UTC+00:00)

Cosmos 2058 - Pass Details

Date: 09 April 2020
Orbit: 563 x 583 km, 82.5° (Epoch: 04 June)

Event Time Altitude Azimuth Distance (km) Brightness Sun altitude
Rises 20:49:17 0° 346° (NNW) 2,776 7.3 -19.1°
Reaches altitude 10° 20:51:30 10° 343° (NNW) 1,877 6.4 -19.4°
Maximum altitude 20:55:34 59° 264° (W) 663 3.3 -19.9°
Enters shadow 20:57:22 30° 197° (SSW) 1,027 3.9 -20.1°
